Starlink 5597

operational
NORAD ID: 55403 Int'l Des: 2023-014 Owner: SPXS Country: US Constellation: starlink
LEOCIRCULAR

Starlink 5597について

説明を読み込み中...

リアルタイム位置

3D地球を読み込み中...

次回通過

高度履歴

Altitude vs Time

uPlot chart will show altitude changes over time

軌道要素

1 55403U 23014N 25302.49247949 -.00001158 00000-0 -89300-4 0 9998
2 55403 70.0017 35.2412 0002901 268.7005 91.3822 14.98336883152401
Epoch: Oct 29, 2025 • Age: 15 hours

現在のステータス

高度 574.1 km
速度 7.57 km/s
衛星直下点 4.52°N, 128.04°E
打ち上げ日 Jan 31, 2023
運用期間 2.7 years
タイプ internet

技術仕様

分類 Payload
質量 305.00 kg
乾燥質量 290.00 kg
総質量 305.00 kg
長さ 0.20 m
直径 2.80 m
スパン 9.00 m
形状 Box + pan
製造者 SPXS
バスタイプ Starlink
フェーズステータス In Orbit
所有者/国 SPXS/US

大規模コンステレーション

Loading constellations...